Flag for Belgium Weather past 2 weeks in Brussels, Belgium

Now
59 °F

Cool.


Feels Like: 59 °F
Forecast: 57 / 70 °F
Wind: 5 mph from South

Location: Uccle

Current Time: Aug 28, 2014 at 4:09:15 AM

Latest Report: Aug 28, 2014 at 3:00 AM


Visibility: N/A

Pressure: 29.98 "Hg

Humidity: 92%

Dew point: 57 °F

Location of BrusselsLocation

Historic Weather in Brussels — Graph

°F

Brussels temperature yesterday

Maximum temperature yesterday: 68 °F (at 5:00 PM)
Minimum temperature yesterday: 53 °F (at 7:00 AM)
Average temperature yesterday: 60 °F

Past Weeks' High & Low Weather Summary

 TemperatureHumidityPressure
High69 °F (Aug 13, 5:00 PM)95% (Aug 26, 5:00 AM)30.16 "Hg (Aug 26, 5:00 AM)
Low47 °F (Aug 20, 6:00 AM)45% (Aug 24, 4:00 PM)29.61 "Hg (Aug 26, 4:00 AM)
Average58 °F79%29.92 "Hg
* Reported Aug 13 2:00 AM — Aug 28 2:00 AM, Brussels, Weather by CustomWeather, © 2014

Note: Actual official high and low records may vary slightly from our data, if they occured in-between our weather recording intervals... More about our weather records

Advertising

Brussels weather history for previous 24 hours

 ConditionsComfort  
Time TempWeatherWind HumidityBarometerVisibility
2:00 AM
Aug 28
60 °FCool.5 mph92%29.98 "HgN/A
1:00 AM61 °FCool.3 mph91%29.98 "HgN/A
12:00 AM60 °FCool.3 mph90%30.00 "HgN/A
11:00 PM
Aug 27
61 °FCool.2 mph89%30.00 "HgN/A
10:00 PM62 °FCool.1 mph86%29.99 "HgN/A
9:00 PM64 °FMild.1 mph81%29.99 "HgN/A
8:00 PM66 °FMild.1 mph76%29.98 "HgN/A
7:00 PM67 °FMild.2 mph71%29.98 "HgN/A
6:00 PM67 °FMild.2 mph69%29.99 "HgN/A
5:00 PM68 °FMild.2 mph68%29.99 "HgN/A
4:00 PM67 °FMild.2 mph71%30.00 "HgN/A
3:00 PM65 °FMild.2 mph73%30.01 "HgN/A
2:00 PM62 °FCool.2 mph80%30.01 "HgN/A
1:00 PM61 °FCool.2 mph81%30.02 "HgN/A
12:00 PM59 °FCool.2 mph84%30.01 "HgN/A
11:00 AM58 °FCool.2 mph92%30.01 "HgN/A
10:00 AM54 °FCool.2 mph94%30.00 "HgN/A
9:00 AM53 °FCool.2 mph94%29.98 "HgN/A
8:00 AM53 °FCool.2 mph94%29.96 "HgN/A
7:00 AM53 °FCool.2 mph94%29.94 "HgN/A
6:00 AM54 °FCool.2 mph94%29.93 "HgN/A
5:00 AM54 °FCool.2 mph94%29.92 "HgN/A
4:00 AM55 °FCool.3 mph95%29.89 "HgN/A
Weather by CustomWeather, © 2014

See weather overviewHow to use our weather pages